OE1TRI Weather Reports


time (UTC)temp
C
wind
direction
speed
KPH
gust
KPH
rain 1hr
cm
rain 24hr
cm
rain mn
cm
humidity
%
barometer
mb
20260503053004 14 80 0.0 3.2 0.00 0.00 0.00 61 1025.1
20260503052005 13 71 0.0 1.6 0.00 0.00 0.00 61 1025.1
20260503051005 13 77 1.6 1.6 0.00 0.00 0.00 63 1025.4
20260503050005 12 34 1.6 3.2 0.00 0.00 0.00 68 1025.4
20260503045004 11 44 0.0 3.2 0.00 0.00 0.00 68 1025.1
20260503044005 11 46 3.2 3.2 0.00 0.00 0.00 70 1025.1
20260503042005 10 40 3.2 3.2 0.00 0.00 0.00 72 1025.1
20260503041005 10 42 1.6 3.2 0.00 0.00 0.00 73 1025.1
20260503040005 10 44 1.6 3.2 0.00 0.00 0.00 73 1025.1
20260503035004 10 50 1.6 3.2 0.00 0.00 0.00 73 1025.1
20260503034005 10 67 0.0 0.0 0.00 0.00 0.00 72 1025.1
20260503032005 10 65 0.0 1.6 0.00 0.00 0.00 73 1024.7
20260503025004 10 54 0.0 4.8 0.00 0.00 0.00 72 1024.7
20260503024005 11 56 0.0 1.6 0.00 0.00 0.00 71 1024.7
20260503023004 11 73 1.6 3.2 0.00 0.00 0.00 71 1024.7
20260503022005 11 60 1.6 3.2 0.00 0.00 0.00 72 1024.7
20260503021005 11 104 3.2 4.8 0.00 0.00 0.00 69 1024.7
20260503020004 11 71 1.6 4.8 0.00 0.00 0.00 67 1024.7
20260503015005 11 60 0.0 0.0 0.00 0.00 0.00 68 1024.4
20260503012005 11 70 0.0 0.0 0.00 0.00 0.00 68 1024.7
20260503011005 11 66 0.0 0.0 0.00 0.00 0.00 67 1024.7
20260503010005 11 67 0.0 0.0 0.00 0.00 0.00 66 1024.7
20260503003005 12 71 0.0 0.0 0.00 0.00 0.00 65 1024.4
20260503001005 12 70 0.0 0.0 0.00 0.00 0.00 64 1024.7
20260503000004 12 68 0.0 0.0 0.00 0.00 0.00 63 1024.7
20260502235005 12 65 0.0 0.0 0.00 0.00 0.00 62 1024.7
20260502234005 12 69 0.0 0.0 0.00 0.00 0.00 61 1024.7
20260502233005 13 53 0.0 0.0 0.00 0.00 0.00 60 1025.1
20260502232005 13 58 0.0 0.0 0.00 0.00 0.00 58 1025.1
20260502230004 13 76 0.0 1.6 0.00 0.00 0.00 57 1025.1
20260502223005 14 65 1.6 3.2 0.00 0.00 0.00 54 1025.4
20260502220005 15 255 3.2 3.2 0.00 0.00 0.00 53 1025.4
20260502215004 15 82 1.6 3.2 0.00 0.00 0.00 53 1025.4
20260502214004 15 49 0.0 1.6 0.00 0.00 0.00 53 1025.4
20260502212005 15 253 1.6 1.6 0.00 0.00 0.00 52 1025.4
20260502211005 15 64 0.0 1.6 0.00 0.00 0.00 52 1025.4
20260502205005 15 227 3.2 4.8 0.00 0.00 0.00 51 1025.7
20260502204004 16 98 1.6 3.2 0.00 0.00 0.00 51 1025.7
20260502203004 16 87 1.6 3.2 0.00 0.00 0.00 50 1025.7
20260502202005 16 94 0.0 1.6 0.00 0.00 0.00 50 1025.7
20260502201005 16 159 1.6 1.6 0.00 0.00 0.00 51 1026.1
20260502200005 16 124 1.6 1.6 0.00 0.00 0.00 50 1026.0
20260502195005 16 144 1.6 3.2 0.00 0.00 0.00 49 1025.7
20260502193005 17 94 0.0 1.6 0.00 0.00 0.00 48 1025.7
20260502191004 18 203 1.6 3.2 0.00 0.00 0.00 45 1025.7
20260502190005 18 33 1.6 3.2 0.00 0.00 0.00 44 1025.7
20260502183005 20 83 0.0 1.6 0.00 0.00 0.00 36 1025.7
20260502182005 21 62 0.0 3.2 0.00 0.00 0.00 33 1025.4
20260502181004 21 121 1.6 3.2 0.00 0.00 0.00 33 1025.4
20260502164005 23 15 8.0 9.7 0.00 0.00 0.00 32 1025.4
20260502162005 24 78 4.8 9.7 0.00 0.00 0.00 31 1025.7
20260502161005 23 22 8.0 11.3 0.00 0.00 0.00 32 1026.1
20260502151005 25 75 0.0 8.0 0.00 0.00 0.00 31 1026.4
20260502122005 25 100 4.8 12.9 0.00 0.00 0.00 32 1028.1
20260502121005 25 12 3.2 9.7 0.00 0.00 0.00 32 1028.4
20260502115005 25 164 4.8 4.8 0.00 0.00 0.00 32 1028.8
20260502114005 24 60 1.6 4.8 0.00 0.00 0.00 33 1029.1
20260502113005 24 64 3.2 8.0 0.00 0.00 0.00 32 1029.1
20260502112004 24 83 0.0 1.6 0.00 0.00 0.00 32 1029.1
20260502110005 24 96 3.2 12.9 0.00 0.00 0.00 34 1029.1
20260502105005 23 122 4.8 9.7 0.00 0.00 0.00 34 1029.1
20260502104005 23 134 8.0 9.7 0.00 0.00 0.00 32 1029.5
20260502103005 24 6 1.6 8.0 0.00 0.00 0.00 31 1029.5
20260502102004 22 78 1.6 12.9 0.00 0.00 0.00 33 1029.8
20260502101005 23 29 3.2 14.5 0.00 0.00 0.00 32 1029.8
20260502070005 17 60 0.0 3.2 0.00 0.00 0.00 53 1031.5
20260502064005 17 65 1.6 1.6 0.00 0.00 0.00 52 1031.2
20260502062004 16 89 1.6 3.2 0.00 0.00 0.00 55 1031.2
20260502060005 16 58 0.0 1.6 0.00 0.00 0.00 55 1031.2